TimeCDT,TemperatureF,Dew PointF,Humidity,Sea Level PressureIn,VisibilityMPH,Wind Direction,Wind SpeedMPH,Gust SpeedMPH,PrecipitationIn,Events,Conditions,WindDirDegrees,DateUTC
12:52 AM,37.0,34.0,89,30.10,-9999.0,NNW,9.2,-,N/A,,Unknown,330,2012-10-11 05:52:00
1:52 AM,36.0,30.9,82,30.12,-9999.0,NNE,11.5,19.6,N/A,,Unknown,20,2012-10-11 06:52:00
2:52 AM,34.0,30.9,89,30.16,-9999.0,North,10.4,-,N/A,,Unknown,360,2012-10-11 07:52:00
3:52 AM,34.0,28.9,82,30.18,-9999.0,North,5.8,-,N/A,,Unknown,360,2012-10-11 08:52:00
4:52 AM,34.0,28.9,82,30.21,-9999.0,North,10.4,-,N/A,,Unknown,360,2012-10-11 09:52:00
5:52 AM,33.1,28.0,82,30.23,-9999.0,North,10.4,-,N/A,,Unknown,360,2012-10-11 10:52:00
6:52 AM,32.0,28.0,85,30.27,-9999.0,NNW,6.9,-,N/A,,Unknown,330,2012-10-11 11:52:00
7:52 AM,32.0,28.9,88,30.30,-9999.0,NNW,5.8,-,N/A,,Unknown,330,2012-10-11 12:52:00
8:52 AM,33.1,28.9,85,30.32,-9999.0,NNW,5.8,-,N/A,,Unknown,330,2012-10-11 13:52:00
9:52 AM,34.0,30.0,85,30.35,-9999.0,NW,6.9,-,N/A,,Unknown,320,2012-10-11 14:52:00
10:52 AM,35.1,28.9,78,30.37,-9999.0,North,8.1,-,N/A,,Unknown,360,2012-10-11 15:52:00
11:52 AM,37.0,28.9,73,30.38,-9999.0,NNW,6.9,17.3,N/A,,Unknown,340,2012-10-11 16:52:00
12:52 PM,37.9,25.0,60,30.38,-9999.0,NW,6.9,-,N/A,,Unknown,320,2012-10-11 17:52:00
1:52 PM,37.9,26.1,62,30.37,-9999.0,North,5.8,-,N/A,,Unknown,10,2012-10-11 18:52:00
2:52 PM,39.0,25.0,57,30.38,-9999.0,Calm,Calm,-,N/A,,Unknown,0,2012-10-11 19:52:00
3:52 PM,41.0,24.1,51,30.37,-9999.0,North,5.8,-,N/A,,Unknown,10,2012-10-11 20:52:00
4:52 PM,39.9,24.1,53,30.38,-9999.0,NNW,5.8,-,N/A,,Unknown,330,2012-10-11 21:52:00
5:52 PM,39.0,23.0,53,30.37,-9999.0,NNW,4.6,-,N/A,,Unknown,340,2012-10-11 22:52:00
6:52 PM,37.9,24.1,57,30.37,-9999.0,Calm,Calm,-,N/A,,Unknown,0,2012-10-11 23:52:00
7:52 PM,33.1,23.0,66,30.38,-9999.0,Calm,Calm,-,N/A,,Unknown,0,2012-10-12 00:52:00
8:52 PM,30.0,21.0,69,30.38,-9999.0,Calm,Calm,-,N/A,,Unknown,0,2012-10-12 01:52:00
9:52 PM,32.0,21.9,66,30.38,-9999.0,East,5.8,-,N/A,,Unknown,80,2012-10-12 02:52:00
10:52 PM,30.9,24.1,76,30.36,-9999.0,SE,6.9,-,N/A,,Unknown,130,2012-10-12 03:52:00
11:52 PM,32.0,26.1,79,30.34,-9999.0,SSE,6.9,-,N/A,,Unknown,150,2012-10-12 04:52:00